Printer-friendly version

IAU Minor Planet Center

Minor Planet Center

MPEC 2004-F59 : 2002 EX11

The following Minor Planet Electronic Circular may be linked-to from your own Web pages, but must not otherwise be redistributed electronically.


Read MPEC 2004-F58 Read MPEC 2004-F60


M.P.E.C. 2004-F59                                Issued 2004 Mar. 25, 22:43 UT

     The Minor Planet Electronic Circulars contain information on unusual
         minor planets and routine data on comets.  They are published
   on behalf of Commission 20 of the International Astronomical Union by the
          Minor Planet Center, Smithsonian Astrophysical Observatory,
                          Cambridge, MA 02138, U.S.A.

         Supported in part by the Steven and Michele Kirsch Foundation
             Prepared using the Tamkin Foundation Computer Network

                              MPC@CFA.HARVARD.EDU
          URL http://cfa-www.harvard.edu/iau/mpc.html  ISSN 1523-6714

                                   2002 EX11

                           Revision to MPEC 2002-F12

Additional Observations:
     K02E11X 2C2003 08 30.33758322 33 38.875-06 50 49.53                EF059568
     K02E11X 2C2003 08 30.34493522 33 38.349-06 50 52.95         23.4 R EF059568
     K02E11X 2C2003 08 31.36515522 32 27.038-06 58 38.15         24.2 R EF059568
     K02E11X 2C2003 08 31.37250722 32 26.502-06 58 41.49         23.5 R EF059568

Observer details:
568 Mauna Kea.  Observers F. Bernardi, R. J. Whiteley.  Measurers F. Bernardi,
    D. J. Tholen.  2.2-m University of Hawaii reflector + CCD.

First and last observations above in comparison with prediction:
Residuals in seconds of arc, reference and Delta-T
030830 568 57.8- 20.4-    030831 568 57.7- 20.5-    MPO 38333   +0.092 day

Orbital elements:
2002 EX11
Epoch 2004 July 14.0 TT = JDT 2453200.5                 MPC
M 333.00609              (2000.0)            P               Q
n   0.38016657     Peri.  314.92065     -0.79035245     -0.61262723
a   1.8872094      Node   187.30586     +0.57368750     -0.73687245
e   0.4093092      Incl.    2.50433     +0.21500151     -0.28584412
P   2.59           H   20.9           G   0.15           U   2
Residuals in seconds of arc
020315 704  0.2-  0.4+    020317 422  0.1+  0.1+    020403 413  0.3+  0.1-
020315 704  0.2-  0.6+    020317 344  0.2+  0.2-    020403 246  0.3+  0.6-
020315 704  0.6-  0.6+    020317 344  0.1+  0.2-    020403 246  1.0+  0.2-
020315 704  0.1-  0.3+    020317 246  0.4+  0.9+    020403 246  0.5+  1.2-
020315 704  0.1-  0.3+    020317 246  0.0   0.8+    020403 246  0.5+  1.1-
020316 704  1.1+  0.9+    020317 246  1.2-  0.3+    020403 246  0.5+  0.6-
020316 704  1.0+  0.4-    020317 557  0.3-  1.3+    020403 246  0.4+  0.3-
020316 704  0.4+  0.6+    020317 557  1.1+  0.2+    020403 246  0.8+  0.9-
020316 704  0.6+  0.5+    020317 557  0.1-  0.8+    020407 246  0.3+  0.2-
020316 704  1.2+  0.3+    020318 651  0.2-  0.6+    020407 246  0.1-  0.4-
020316 704  0.9+  0.1+    020318 651  0.5-  0.5+    020418 598  1.6-  0.0
020316 704  1.4+  1.3+    020318 651  0.4-  0.5+    020418 598  1.9-  0.1+
020316 704  0.6+  0.1+    020321 715  1.7-  1.0-    020418 598  1.6-  0.3-
020316 704  0.6-  0.6+    020321 715  1.5-  0.0     020418 598  1.5-  0.1+
020316 344  0.2-  0.6-    020321 715  1.5-  0.4+    020422 413  0.1+  0.2+
020316 344  0.1+  1.3-    020322 649  1.4-  0.9-    020422 413  0.0   0.9+
020316 152  0.3+  0.1-    020322 649  1.2-  0.7-    020505 696  0.9+  0.5-
020316 152  1.3-  0.1-    020322 649  0.3-  0.2-    020505 696  0.2+  0.3+
020316 152 (2.2+  0.2+)   020401 966  0.3+  0.6+    020608 696  1.2+  0.5+
020317 704  0.1-  1.9+    020401 966  1.1+  0.4+    020608 696  0.7+  0.1+
020317 704  0.3+  0.5+    020402 413  0.4+  0.1-    030830 568  0.1-  0.3+
020317 704  0.1-  0.6-    020402 413  0.0   0.6-    030830 568  0.1-  0.3+
020317 704  0.2+  0.4+    020402 413  0.9+  0.0     030831 568  0.0   0.1+
020317 422  1.1+  0.1-    020403 413  0.4+  0.3-    030831 568  0.1-  0.1+
020317 422  0.0   0.5-    020403 413  0.4+  0.3-

Kyle E. Smalley              (C) Copyright 2004 MPC           M.P.E.C. 2004-F59

Read MPEC 2004-F58 Read MPEC 2004-F60


Our Web policy. Index to the CBAT/MPC/ICQ pages.


Valid HTML 4.01!